Location: Colle Santa Colomba
(42.0333°N, 12.5667°E)
Time: 00:13:01
(UTC+00:00)

BlueWalker 3 - Visible Passes

Search period start: 07 December 2022 00:00
Search period end: 17 December 2022 00:00
Orbit: 501 x 518 km, 53.2° (Epoch: 06 December)

Date Brightness Start Highest point End Pass type
(mag) Time Alt. Az. Time Alt. Az. Time Alt. Az.
07 Dec 3.7 16:08:21 10° NNW 16:11:07 18° NNE 16:13:52 10° ENE visible
07 Dec 3.2 17:46:42 10° NW 17:49:06 32° NNW 17:49:06 32° NNW visible
08 Dec 2.2 17:28:17 10° NW 17:31:51 50° NNE 17:31:51 50° NNE visible
09 Dec 2.0 17:09:52 10° NW 17:13:43 55° NNE 17:14:45 40° E visible
09 Dec 5.2 18:49:05 10° W 18:49:37 13° W 18:49:37 13° W visible
10 Dec 2.0 16:51:26 10° NW 16:55:18 58° NNE 16:57:54 19° ESE visible
10 Dec 4.6 18:30:45 10° W 18:32:47 19° WSW 18:32:47 19° WSW visible
11 Dec 2.0 16:33:00 10° NW 16:36:53 62° NE 16:40:44 10° ESE visible
11 Dec 4.4 18:12:25 10° W 18:15:12 19° SW 18:16:19 17° SSW visible
12 Dec 1.9 16:14:34 10° NW 16:18:28 66° NE 16:22:19 10° ESE visible
12 Dec 4.7 17:54:06 10° W 17:56:45 18° SW 17:59:23 10° S visible
13 Dec 4.9 17:35:47 10° W 17:38:17 17° SW 17:40:47 10° SSW visible
14 Dec 5.0 17:17:29 10° W 17:19:49 15° SW 17:22:09 10° SSW visible
15 Dec 5.1 16:59:11 10° W 17:01:21 14° SW 17:03:30 10° SSW visible
16 Dec 5.3 16:40:56 10° W 16:42:52 13° SW 16:44:48 10° SSW visible
